CW6876 Weather Reports


time (UTC)temp
C
wind
direction
speed
KPH
gust
KPH
rain 1hr
cm
rain 24hr
cm
rain mn
cm
humidity
%
barometer
mb
20260510164609 21 338 1.6 8.0 0.00 0.33 0.03 63 1014.5
20260510163050 21 288 3.2 12.9 0.00 0.33 0.03 63 1014.6
20260510161512 21 150 0.0 8.0 0.00 0.33 0.03 65 1014.2
20260510160058 20 208 0.0 9.7 0.00 0.33 0.03 64 1014.3
20260510154513 21 203 0.0 8.0 0.03 0.43 0.03 68 1014.3
20260510153059 20 116 0.0 4.8 0.03 0.43 0.03 71 1014.2
20260510151525 18 240 1.6 8.0 0.03 0.43 0.03 82 1014.4
20260510150118 17 128 0.0 6.4 0.03 0.43 0.03 90 1014.3
20260510144544 16 217 0.0 4.8 0.00 0.41 0.00 96 1014.3
20260510143012 15 203 0.0 0.0 0.00 0.41 0.00 96 1014.3
20260510141546 15 145 0.0 1.6 0.00 0.41 0.00 97 1014.3
20260510140013 15 164 0.0 3.2 0.00 0.41 0.00 97 1014.4
20260510134558 14 126 0.0 1.6 0.00 0.41 0.00 97 1014.3
20260510133033 13 146 0.0 0.0 0.00 0.41 0.00 97 1014.2
20260510131606 12 141 0.0 0.0 0.00 0.41 0.00 97 1014.2
20260510130032 12 149 0.0 0.0 0.00 0.41 0.00 97 1014.3
20260510124501 11 134 0.0 0.0 0.00 0.41 0.00 97 1014.2
20260510123047 10 352 0.0 0.0 0.00 0.41 0.00 97 1014.2
20260510121517 10 352 0.0 0.0 0.00 0.41 0.00 96 1014.0
20260510120104 10 352 0.0 0.0 0.00 0.41 0.00 96 1013.8
20260510114529 10 352 0.0 0.0 0.00 0.41 0.00 96 1013.6
20260510113125 9 351 0.0 0.0 0.00 0.41 0.00 96 1013.4
20260510111554 9 352 0.0 0.0 0.00 0.41 0.00 96 1013.2
20260510110006 9 0.0 0.0 0.00 0.41 0.00 96 1013.1
20260510104556 9 0.0 0.0 0.00 0.41 0.00 96 1013.0
20260510103019 9 0.0 0.0 0.00 0.41 0.00 96 1013.2
20260510101602 9 0.0 0.0 0.00 0.41 0.00 96 1012.9
20260510100031 9 351 0.0 0.0 0.00 0.41 0.00 96 1012.8
20260510094608 9 352 0.0 0.0 0.00 0.41 0.00 96 1012.4
20260510093050 9 352 0.0 0.0 0.00 0.41 0.00 96 1012.5
20260510091504 9 351 0.0 0.0 0.00 0.41 0.00 96 1012.2
20260510090050 9 352 0.0 0.0 0.00 0.41 0.00 96 1012.3
20260510084520 9 352 0.0 0.0 0.00 0.41 0.00 96 1012.3
20260510083102 9 112 0.0 0.0 0.00 0.41 0.00 96 1012.5
20260510081539 9 124 0.0 0.0 0.00 0.41 0.00 95 1012.4
20260510080110 9 124 0.0 3.2 0.00 0.41 0.00 96 1012.4
20260510074538 8 133 0.0 6.4 0.00 0.41 0.00 95 1012.0
20260510073013 8 152 0.0 0.0 0.00 0.41 0.00 95 1011.7
20260510071554 8 152 0.0 0.0 0.00 0.41 0.00 95 1011.8
20260510070025 9 152 0.0 0.0 0.00 0.41 0.00 94 1011.7
20260510064606 9 152 0.0 0.0 0.00 0.41 0.00 95 1011.8
20260510063040 10 152 0.0 0.0 0.00 0.41 0.00 95 1011.6
20260510061500 10 152 0.0 0.0 0.00 0.41 0.00 95 1011.4
20260510060055 10 106 0.0 0.0 0.00 0.41 0.00 95 1011.4
20260510054525 10 106 0.0 0.0 0.00 0.41 0.00 95 1011.5
20260510053124 10 131 0.0 0.0 0.00 0.41 0.00 95 1011.6
20260510051542 10 131 0.0 0.0 0.00 0.41 0.00 94 1011.7
20260510050007 10 130 0.0 0.0 0.00 0.41 0.00 94 1011.8
20260510044607 10 129 0.0 0.0 0.00 0.41 0.00 94 1011.9
20260510043030 10 129 0.0 0.0 0.00 0.41 0.00 94 1012.0
20260510041610 10 130 0.0 0.0 0.00 0.41 0.00 94 1011.9
20260510040045 10 129 0.0 0.0 0.00 0.41 0.00 94 1012.0
20260510034508 10 130 0.0 0.0 0.00 0.41 0.41 94 1012.2
20260510033058 10 130 0.0 0.0 0.00 0.41 0.41 94 1012.0
20260510031518 10 129 0.0 0.0 0.00 0.41 0.41 94 1011.8
20260510030113 10 129 0.0 0.0 0.00 0.41 0.41 94 1011.7
20260510024537 11 130 0.0 0.0 0.00 0.41 0.41 94 1011.7
20260510023007 11 134 0.0 0.0 0.00 0.41 0.41 94 1011.8
20260510021550 11 134 0.0 0.0 0.00 0.41 0.41 93 1011.6
20260510020022 11 73 0.0 0.0 0.00 0.41 0.41 94 1011.5
20260510014607 11 73 0.0 0.0 0.00 0.41 0.41 93 1011.3
20260510013034 11 74 0.0 0.0 0.00 0.41 0.41 93 1011.1
20260510011613 11 74 0.0 0.0 0.00 0.41 0.41 93 1011.1
20260510010037 12 74 0.0 0.0 0.00 0.41 0.41 93 1011.1
20260510004505 12 74 0.0 0.0 0.00 0.41 0.41 93 1010.9
20260510003051 12 73 0.0 0.0 0.00 0.41 0.41 94 1010.7
20260510001511 12 74 0.0 0.0 0.00 0.41 0.41 93 1010.7
20260509234536 12 73 0.0 0.0 0.00 0.41 0.41 94 1010.5
20260509233106 13 74 0.0 0.0 0.00 0.41 0.41 94 1010.6
20260509231533 13 74 0.0 0.0 0.00 0.41 0.41 94 1010.6
20260509230016 13 65 0.0 0.0 0.00 0.41 0.41 94 1010.6
20260509224541 13 65 0.0 0.0 0.00 0.41 0.41 94 1010.5
20260509223013 13 65 0.0 0.0 0.00 0.41 0.41 94 1010.5
20260509221549 13 65 0.0 0.0 0.00 0.41 0.41 94 1010.4
20260509220019 13 65 0.0 0.0 0.00 0.41 0.41 93 1010.5
20260509214556 13 65 0.0 0.0 0.00 0.41 0.41 93 1010.5
20260509213031 13 65 0.0 0.0 0.00 0.41 0.41 94 1010.4
20260509211607 12 65 0.0 0.0 0.00 0.41 0.41 93 1010.6
20260509210037 13 65 0.0 0.0 0.00 0.41 0.41 94 1010.7
20260509204510 13 65 0.0 0.0 0.00 0.41 0.41 94 1010.6
20260509203049 13 57 0.0 0.0 0.00 0.41 0.41 94 1010.7
20260509201521 12 70 0.0 0.0 0.05 0.41 0.41 95 1010.9
20260509200111 12 110 0.0 0.0 0.08 0.41 0.41 95 1010.5
20260509194525 12 4 0.0 0.0 0.13 0.41 0.41 95 1010.8
20260509193115 12 85 0.0 0.0 0.15 0.41 0.41 95 1011.2
20260509191529 11 84 0.0 0.0 0.15 0.36 0.36 94 1011.6
20260509190002 11 84 0.0 0.0 0.13 0.33 0.33 94 1011.8
20260509184548 11 84 0.0 0.0 0.10 0.28 0.28 93 1012.0
20260509183013 12 84 0.0 0.0 0.08 0.25 0.25 93 1012.3
20260509181554 12 195 0.0 0.0 0.05 0.20 0.20 94 1012.4
20260509180021 12 196 0.0 0.0 0.08 0.20 0.20 94 1012.4
20260509173043 12 200 0.0 0.0 0.05 0.18 0.18 94 1012.4
20260509171501 12 226 0.0 0.0 0.05 0.15 0.15 93 1012.4
20260509170041 12 229 0.0 0.0 0.03 0.13 0.13 93 1012.2